Location: Newark
(51.3318°N, 0.0053°E)
Time: 16:08:03
(UTC+00:00)

DIWATA 2B (PO-101) - Pass Details

Date: 09 July 2022
Orbit: 583 x 599 km, 98.0° (Epoch: 07 August)

Event Time Altitude Azimuth Distance (km) Brightness Sun altitude
Exits shadow 01:10:25 10° 141° (SE) 1,955 ? -14.9°
Reaches altitude 10° 01:10:27 10° 141° (SE) 1,938 ? -14.9°
Maximum altitude 01:14:28 45° 69° (ENE) 824 ? -14.7°
Drops below altitude 10° 01:18:30 10° 357° (N) 1,949 ? -14.6°
Sets 01:20:44 0° 351° (N) 2,855 ? -14.4°
